Regional Weather Roundup
Issued by NWS

Home | Current Version | Previous Version | Graphics & Text | Print | Product List | Glossary On
Versions: 1 2 3 4 5 6 7 8 9 10 11 12 13 14 15 16 17 18 19 20 21 22 23 24 25 26 27 28 29 30 31 32 33 34 35 36 37 38 39 40 41 42 43 44 45 46 47 48 49 50
000
ASUS45 KBOI 301810
RWRID

IDAHO REGIONAL WEATHER ROUNDUP
NATIONAL WEATHER SERVICE BOISE ID
1200 PM MDT TUE JUN 30 2015

NOTE: "FAIR" INDICATES FEW OR NO CLOUDS BELOW 12000 FEET
WITH NO SIGNIFICANT WEATHER AND/OR OBSTRUCTIONS TO VISIBILITY

IDZ012-014-301900-
SOUTHWEST IDAHO


CITY           SKY/WX    TMP DP  RH WIND       PRES   REMARKS
BOISE          SUNNY     90  57  32 VRB7      30.01F
CALDWELL       SUNNY     91  57  31 W9        30.01S HX  90
MOUNTAIN HOME  MOSUNNY   92  54  27 N8        30.01F HX  90
$$

IDZ016-017-301900-
SOUTHCENTRAL IDAHO


CITY           SKY/WX    TMP DP  RH WIND       PRES   REMARKS
BURLEY         SUNNY     86  56  35 VRB3      30.10S
JEROME         MOSUNNY   84  53  34 S6        30.10F
TWIN FALLS     MOSUNNY   88  58  36 NW9       30.09S
$$

IDZ019>023-301900-
SOUTHEAST IDAHO


CITY           SKY/WX    TMP DP  RH WIND       PRES   REMARKS
IDAHO FALLS    PTSUNNY   80  62  54 W3        30.15S
POCATELLO      SUNNY     85  54  34 NW6       30.13F
REXBURG        PTSUNNY   81  54  39 S5        30.15F
$$

IDZ006-010-011-018-031-032-301900-
CENTRAL IDAHO MOUNTAINS


CITY           SKY/WX    TMP DP  RH WIND       PRES   REMARKS
MCCALL         SUNNY     83  52  34 CALM      30.15F
HAILEY         MOSUNNY   81  59  47 SE12      30.19F
STANLEY          N/A     83  47  28 NW8       30.26F
SALMON         SUNNY     79  59  50 CALM      30.09F
CHALLIS        MOSUNNY   81  52  36 CALM      30.16F
$$

IDZ002-004-006-007-026-301900-
NORTHERN IDAHO


CITY           SKY/WX    TMP DP  RH WIND       PRES   REMARKS
LEWISTON       SUNNY     92  56  29 VRB7      29.98F HX  90
LOWELL           N/A     90  61  37 CALM      29.96F HX  90
COEUR D`ALENE  SUNNY     82  61  47 W6        30.03F
MULLAN PASS    SUNNY     71  51  49 VRB7      30.25R
$$


USA.gov is the U.S. government's official web portal to all federal, state and local government web resources and services.